| time (UTC) | temp F | wind direction | speed MPH | gust MPH | rain 1hr in | rain 24hr in | rain mn in | humidity % | barometer mb |
| 20260505024546 | 59 | 203 | 4.0 | 11.0 | 0.00 | 0.00 | 0.00 | 48 | 1014.9 |
| 20260505024020 | 59 | 159 | 3.0 | 11.0 | 0.00 | 0.00 | 0.00 | 48 | 1014.9 |
| 20260505023520 | 59 | 264 | 2.0 | 6.0 | 0.00 | 0.00 | 0.00 | 48 | 1014.9 |
| 20260505023020 | 59 | 110 | 2.0 | 10.0 | 0.00 | 0.00 | 0.00 | 47 | 1014.9 |
| 20260505022520 | 59 | 193 | 5.0 | 10.0 | 0.00 | 0.00 | 0.00 | 47 | 1014.8 |
| 20260505022020 | 59 | 234 | 2.0 | 9.0 | 0.00 | 0.00 | 0.00 | 47 | 1014.8 |
| 20260505021538 | 59 | 213 | 2.0 | 12.0 | 0.00 | 0.00 | 0.00 | 47 | 1014.9 |
| 20260505021019 | 59 | 198 | 2.0 | 11.0 | 0.00 | 0.00 | 0.00 | 46 | 1014.9 |
| 20260505020622 | 60 | 165 | 2.0 | 12.0 | 0.00 | 0.00 | 0.00 | 46 | 1014.9 |
| 20260505020019 | 60 | 165 | 4.0 | 12.0 | 0.00 | 0.00 | 0.00 | 46 | 1014.8 |
| 20260505015521 | 59 | 193 | 2.0 | 10.0 | 0.00 | 0.00 | 0.00 | 46 | 1014.8 |
| 20260505015019 | 59 | 143 | 3.0 | 10.0 | 0.00 | 0.00 | 0.00 | 45 | 1014.9 |
| 20260505014523 | 60 | 207 | 2.0 | 8.0 | 0.00 | 0.00 | 0.00 | 45 | 1014.9 |
| 20260505014019 | 60 | 86 | 2.0 | 8.0 | 0.00 | 0.00 | 0.00 | 45 | 1014.7 |
| 20260505013518 | 60 | 208 | 1.0 | 6.0 | 0.00 | 0.00 | 0.00 | 45 | 1014.7 |
| 20260505013018 | 60 | 163 | 1.0 | 6.0 | 0.00 | 0.00 | 0.00 | 45 | 1014.7 |
| 20260505012519 | 60 | 171 | 2.0 | 9.0 | 0.00 | 0.00 | 0.00 | 45 | 1014.6 |
| 20260505012017 | 60 | 182 | 2.0 | 10.0 | 0.00 | 0.00 | 0.00 | 45 | 1014.6 |
| 20260505011518 | 60 | 218 | 3.0 | 9.0 | 0.00 | 0.00 | 0.00 | 45 | 1014.6 |
| 20260505011017 | 60 | 176 | 2.0 | 8.0 | 0.00 | 0.00 | 0.00 | 45 | 1014.6 |
| 20260505010516 | 60 | 127 | 3.0 | 15.0 | 0.00 | 0.00 | 0.00 | 45 | 1014.6 |
| 20260505010016 | 60 | 214 | 6.0 | 15.0 | 0.00 | 0.00 | 0.00 | 45 | 1014.5 |
| 20260505005516 | 60 | 203 | 2.0 | 6.0 | 0.00 | 0.00 | 0.00 | 46 | 1014.5 |
| 20260505005016 | 61 | 238 | 2.0 | 7.0 | 0.00 | 0.00 | 0.00 | 47 | 1014.5 |
| 20260505004524 | 61 | 145 | 3.0 | 8.0 | 0.00 | 0.00 | 0.00 | 47 | 1014.4 |
| 20260505004015 | 61 | 133 | 1.0 | 8.0 | 0.00 | 0.00 | 0.00 | 48 | 1014.4 |
| 20260505003616 | 61 | 188 | 4.0 | 9.0 | 0.00 | 0.00 | 0.00 | 47 | 1014.3 |
| 20260505003015 | 62 | 195 | 2.0 | 7.0 | 0.00 | 0.00 | 0.00 | 47 | 1014.2 |
| 20260505002515 | 62 | 95 | 3.0 | 8.0 | 0.00 | 0.00 | 0.00 | 47 | 1014.1 |
| 20260505002015 | 62 | 170 | 2.0 | 8.0 | 0.00 | 0.00 | 0.00 | 47 | 1014.1 |
| 20260505001515 | 62 | 153 | 3.0 | 9.0 | 0.00 | 0.00 | 0.00 | 46 | 1014.1 |
| 20260505001017 | 63 | 169 | 2.0 | 6.0 | 0.00 | 0.00 | 0.00 | 46 | 1014.1 |
| 20260505000513 | 63 | 113 | 2.0 | 11.0 | 0.00 | 0.00 | 0.00 | 45 | 1014.2 |
| 20260505000014 | 63 | 120 | 3.0 | 11.0 | 0.00 | 0.00 | 0.00 | 45 | 1014.1 |
| 20260504235513 | 64 | 217 | 5.0 | 11.0 | 0.00 | 0.00 | 0.00 | 44 | 1014.0 |
| 20260504235017 | 64 | 205 | 5.0 | 10.0 | 0.00 | 0.00 | 0.00 | 44 | 1014.0 |
| 20260504234517 | 64 | 180 | 5.0 | 11.0 | 0.00 | 0.00 | 0.00 | 44 | 1013.9 |
| 20260504234016 | 64 | 131 | 5.0 | 11.0 | 0.00 | 0.00 | 0.00 | 44 | 1013.9 |
| 20260504233513 | 65 | 126 | 3.0 | 10.0 | 0.00 | 0.00 | 0.00 | 44 | 1013.8 |
| 20260504233013 | 65 | 136 | 4.0 | 10.0 | 0.00 | 0.00 | 0.00 | 43 | 1013.9 |
| 20260504232513 | 65 | 168 | 4.0 | 10.0 | 0.00 | 0.00 | 0.00 | 44 | 1013.8 |
| 20260504232012 | 65 | 68 | 3.0 | 10.0 | 0.00 | 0.00 | 0.00 | 43 | 1013.8 |
| 20260504231512 | 66 | 207 | 2.0 | 8.0 | 0.00 | 0.00 | 0.00 | 43 | 1013.7 |
| 20260504231015 | 66 | 154 | 3.0 | 13.0 | 0.00 | 0.00 | 0.00 | 42 | 1013.8 |
| 20260504230512 | 66 | 165 | 5.0 | 13.0 | 0.00 | 0.00 | 0.00 | 41 | 1013.6 |
| 20260504230012 | 66 | 198 | 3.0 | 9.0 | 0.00 | 0.00 | 0.00 | 41 | 1013.6 |
| 20260504225512 | 66 | 139 | 4.0 | 11.0 | 0.00 | 0.00 | 0.00 | 42 | 1013.5 |
| 20260504225012 | 66 | 180 | 5.0 | 11.0 | 0.00 | 0.00 | 0.00 | 41 | 1013.5 |
| 20260504224511 | 67 | 192 | 4.0 | 10.0 | 0.00 | 0.00 | 0.00 | 42 | 1013.6 |
| 20260504224010 | 67 | 139 | 4.0 | 11.0 | 0.00 | 0.00 | 0.00 | 42 | 1013.6 |
| 20260504223510 | 67 | 193 | 3.0 | 11.0 | 0.00 | 0.00 | 0.00 | 42 | 1013.7 |
| 20260504223011 | 67 | 169 | 4.0 | 9.0 | 0.00 | 0.00 | 0.00 | 41 | 1013.6 |
| 20260504222509 | 68 | 154 | 5.0 | 9.0 | 0.00 | 0.00 | 0.00 | 41 | 1013.5 |
| 20260504222014 | 68 | 214 | 4.0 | 13.0 | 0.00 | 0.00 | 0.00 | 40 | 1013.5 |
| 20260504221510 | 68 | 152 | 7.0 | 13.0 | 0.00 | 0.00 | 0.00 | 38 | 1013.6 |
| 20260504221009 | 69 | 204 | 5.0 | 9.0 | 0.00 | 0.00 | 0.00 | 38 | 1013.5 |
| 20260504220512 | 69 | 198 | 2.0 | 9.0 | 0.00 | 0.00 | 0.00 | 40 | 1013.5 |
| 20260504220009 | 69 | 174 | 3.0 | 9.0 | 0.00 | 0.00 | 0.00 | 39 | 1013.6 |
| 20260504215508 | 69 | 168 | 4.0 | 11.0 | 0.00 | 0.00 | 0.00 | 39 | 1013.5 |
| 20260504215007 | 69 | 205 | 7.0 | 14.0 | 0.00 | 0.00 | 0.00 | 38 | 1013.6 |
| 20260504214508 | 69 | 207 | 2.0 | 14.0 | 0.00 | 0.00 | 0.00 | 41 | 1013.6 |
| 20260504214009 | 68 | 188 | 1.0 | 13.0 | 0.00 | 0.00 | 0.00 | 40 | 1013.7 |
| 20260504213509 | 68 | 171 | 8.0 | 13.0 | 0.00 | 0.00 | 0.00 | 39 | 1013.8 |
| 20260504213007 | 68 | 142 | 3.0 | 11.0 | 0.00 | 0.00 | 0.00 | 41 | 1013.7 |
| 20260504212506 | 68 | 143 | 6.0 | 11.0 | 0.00 | 0.00 | 0.00 | 40 | 1013.9 |
| 20260504212005 | 68 | 156 | 2.0 | 10.0 | 0.00 | 0.00 | 0.00 | 41 | 1013.9 |
| 20260504211505 | 68 | 127 | 5.0 | 16.0 | 0.00 | 0.00 | 0.00 | 40 | 1014.0 |
| 20260504211005 | 68 | 93 | 6.0 | 16.0 | 0.00 | 0.00 | 0.00 | 40 | 1013.9 |
| 20260504210505 | 69 | 119 | 5.0 | 12.0 | 0.00 | 0.00 | 0.00 | 39 | 1013.9 |
| 20260504210006 | 70 | 145 | 5.0 | 14.0 | 0.00 | 0.00 | 0.00 | 39 | 1013.7 |
| 20260504205504 | 70 | 195 | 6.0 | 14.0 | 0.00 | 0.00 | 0.00 | 40 | 1013.9 |
| 20260504205004 | 69 | 142 | 3.0 | 11.0 | 0.00 | 0.00 | 0.00 | 39 | 1014.0 |
| 20260504204509 | 70 | 188 | 4.0 | 12.0 | 0.00 | 0.00 | 0.00 | 39 | 1013.9 |
| 20260504204002 | 70 | 180 | 3.0 | 12.0 | 0.00 | 0.00 | 0.00 | 39 | 1014.1 |
| 20260504203501 | 70 | 169 | 5.0 | 11.0 | 0.00 | 0.00 | 0.00 | 39 | 1014.2 |
| 20260504203100 | 70 | 213 | 3.0 | 13.0 | 0.00 | 0.00 | 0.00 | 41 | 1014.1 |
| 20260504202559 | 68 | 124 | 3.0 | 13.0 | 0.00 | 0.00 | 0.00 | 41 | 1014.2 |
| 20260504202100 | 68 | 160 | 5.0 | 12.0 | 0.00 | 0.00 | 0.00 | 40 | 1014.2 |
| 20260504201609 | 69 | 146 | 4.0 | 11.0 | 0.00 | 0.00 | 0.00 | 40 | 1014.2 |
| 20260504201058 | 69 | 226 | 2.0 | 8.0 | 0.00 | 0.00 | 0.00 | 40 | 1014.3 |
| 20260504200600 | 69 | 119 | 3.0 | 10.0 | 0.00 | 0.00 | 0.00 | 41 | 1014.3 |
| 20260504200109 | 69 | 145 | 3.0 | 10.0 | 0.00 | 0.00 | 0.00 | 41 | 1014.4 |
| 20260504195556 | 68 | 146 | 2.0 | 7.0 | 0.00 | 0.00 | 0.00 | 43 | 1014.4 |
| 20260504195055 | 67 | 131 | 1.0 | 9.0 | 0.00 | 0.00 | 0.00 | 43 | 1014.4 |
| 20260504194555 | 67 | 151 | 3.0 | 7.0 | 0.00 | 0.00 | 0.00 | 43 | 1014.5 |
| 20260504194059 | 67 | 126 | 3.0 | 10.0 | 0.00 | 0.00 | 0.00 | 42 | 1014.6 |
| 20260504193554 | 67 | 164 | 6.0 | 10.0 | 0.00 | 0.00 | 0.00 | 41 | 1014.7 |
| 20260504193054 | 67 | 85 | 4.0 | 9.0 | 0.00 | 0.00 | 0.00 | 41 | 1014.7 |
| 20260504192554 | 68 | 174 | 3.0 | 7.0 | 0.00 | 0.00 | 0.00 | 40 | 1014.9 |
| 20260504192052 | 68 | 141 | 1.0 | 7.0 | 0.00 | 0.00 | 0.00 | 40 | 1014.9 |
| 20260504191552 | 69 | 239 | 1.0 | 9.0 | 0.00 | 0.00 | 0.00 | 41 | 1015.0 |
| 20260504191052 | 69 | 190 | 3.0 | 7.0 | 0.00 | 0.00 | 0.00 | 39 | 1015.1 |
| 20260504190550 | 69 | 167 | 2.0 | 12.0 | 0.00 | 0.00 | 0.00 | 40 | 1015.2 |
| 20260504190048 | 69 | 344 | 4.0 | 12.0 | 0.00 | 0.00 | 0.00 | 41 | 1015.2 |
| 20260504185552 | 68 | 3 | 5.0 | 15.0 | 0.00 | 0.00 | 0.00 | 42 | 1015.2 |
| 20260504185051 | 68 | 323 | 6.0 | 15.0 | 0.00 | 0.00 | 0.00 | 42 | 1015.3 |
| 20260504184556 | 67 | 249 | 3.0 | 15.0 | 0.00 | 0.00 | 0.00 | 41 | 1015.3 |
| 20260504184047 | 68 | 16 | 4.0 | 11.0 | 0.00 | 0.00 | 0.00 | 42 | 1015.4 |
| 20260504183547 | 68 | 214 | 2.0 | 13.0 | 0.00 | 0.00 | 0.00 | 42 | 1015.4 |
| 20260504183046 | 67 | 268 | 3.0 | 21.0 | 0.00 | 0.00 | 0.00 | 44 | 1015.5 |
| 20260504182546 | 66 | 152 | 6.0 | 21.0 | 0.00 | 0.00 | 0.00 | 43 | 1015.6 |
| 20260504182044 | 67 | 236 | 3.0 | 13.0 | 0.00 | 0.00 | 0.00 | 44 | 1015.8 |
| 20260504181546 | 67 | 247 | 5.0 | 12.0 | 0.00 | 0.00 | 0.00 | 42 | 1015.9 |
| 20260504181043 | 66 | 286 | 3.0 | 15.0 | 0.00 | 0.00 | 0.00 | 44 | 1016.0 |
| 20260504180544 | 66 | 121 | 4.0 | 15.0 | 0.00 | 0.00 | 0.00 | 43 | 1016.1 |
| 20260504180041 | 67 | 138 | 5.0 | 13.0 | 0.00 | 0.00 | 0.00 | 43 | 1016.1 |
| 20260504175541 | 66 | 350 | 4.0 | 14.0 | 0.00 | 0.00 | 0.00 | 43 | 1016.1 |
| 20260504175043 | 66 | 189 | 6.0 | 14.0 | 0.00 | 0.00 | 0.00 | 42 | 1016.2 |
| 20260504174541 | 67 | 278 | 4.0 | 16.0 | 0.00 | 0.00 | 0.00 | 42 | 1016.1 |
| 20260504174041 | 67 | 134 | 5.0 | 16.0 | 0.00 | 0.00 | 0.00 | 41 | 1016.2 |
| 20260504173539 | 66 | 243 | 2.0 | 9.0 | 0.00 | 0.00 | 0.00 | 41 | 1016.2 |
| 20260504173039 | 65 | 164 | 3.0 | 11.0 | 0.00 | 0.00 | 0.00 | 43 | 1016.3 |
| 20260504172539 | 65 | 211 | 4.0 | 11.0 | 0.00 | 0.00 | 0.00 | 41 | 1016.3 |
| 20260504172037 | 65 | 138 | 4.0 | 13.0 | 0.00 | 0.00 | 0.00 | 42 | 1016.2 |
| 20260504171537 | 65 | 234 | 4.0 | 13.0 | 0.00 | 0.00 | 0.00 | 41 | 1016.4 |
| 20260504171037 | 65 | 72 | 4.0 | 13.0 | 0.00 | 0.00 | 0.00 | 40 | 1016.5 |
| 20260504170534 | 65 | 203 | 5.0 | 14.0 | 0.00 | 0.00 | 0.00 | 40 | 1016.5 |
| 20260504151020 | 55 | 255 | 5.0 | 11.0 | 0.00 | 0.00 | 0.00 | 55 | 1018.7 |
| 20260504150519 | 55 | 324 | 3.0 | 14.0 | 0.00 | 0.00 | 0.00 | 56 | 1019.0 |
| 20260504141012 | 57 | 8 | 6.0 | 19.0 | 0.00 | 0.00 | 0.00 | 50 | 1018.5 |
| 20260504140511 | 57 | 316 | 8.0 | 19.0 | 0.00 | 0.00 | 0.00 | 50 | 1018.5 |
| 20260504130507 | 57 | 247 | 0.0 | 2.0 | 0.00 | 0.00 | 0.00 | 49 | 1017.9 |
| 20260504110549 | 44 | 3 | 1.0 | 4.0 | 0.00 | 0.00 | 0.00 | 70 | 1017.9 |
| 20260504100546 | 47 | 320 | 0.0 | 2.0 | 0.00 | 0.00 | 0.00 | 64 | 1017.6 |
| 20260504081544 | 37 | 236 | 0.0 | 3.0 | 0.00 | 0.00 | 0.00 | 80 | 1017.6 |
| 20260504081031 | 37 | 88 | 0.0 | 3.0 | 0.00 | 0.00 | 0.00 | 79 | 1017.6 |
| 20260504080530 | 37 | 106 | 0.0 | 2.0 | 0.00 | 0.00 | 0.00 | 78 | 1017.6 |
| 20260504050506 | 42 | 120 | 0.0 | 1.0 | 0.00 | 0.00 | 0.00 | 64 | 1018.4 |
| 20260504050013 | 42 | 119 | 0.0 | 1.0 | 0.00 | 0.00 | 0.00 | 65 | 1018.4 |
| 20260504045505 | 42 | 119 | 0.0 | 1.0 | 0.00 | 0.00 | 0.00 | 65 | 1018.4 |
| 20260504045005 | 42 | 119 | 0.0 | 1.0 | 0.00 | 0.00 | 0.00 | 65 | 1018.5 |
| 20260504044504 | 42 | 143 | 0.0 | 1.0 | 0.00 | 0.00 | 0.00 | 65 | 1018.4 |
| 20260504044003 | 41 | 120 | 0.0 | 1.0 | 0.00 | 0.00 | 0.00 | 65 | 1018.4 |
| 20260504043503 | 41 | 120 | 0.0 | 1.0 | 0.00 | 0.00 | 0.00 | 66 | 1018.3 |
| 20260504043003 | 41 | 120 | 0.0 | 1.0 | 0.00 | 0.00 | 0.00 | 65 | 1018.4 |
| 20260504042503 | 41 | 181 | 0.0 | 0.0 | 0.00 | 0.00 | 0.00 | 65 | 1018.4 |
| 20260504042005 | 41 | 181 | 0.0 | 0.0 | 0.00 | 0.00 | 0.00 | 65 | 1018.4 |
| 20260504041501 | 41 | 181 | 0.0 | 1.0 | 0.00 | 0.00 | 0.00 | 65 | 1018.3 |
| 20260504041100 | 41 | 181 | 0.0 | 1.0 | 0.00 | 0.00 | 0.00 | 65 | 1018.4 |
| 20260504040558 | 41 | 183 | 0.0 | 1.0 | 0.00 | 0.00 | 0.00 | 66 | 1018.3 |
| 20260504040057 | 41 | 183 | 0.0 | 1.0 | 0.00 | 0.00 | 0.00 | 64 | 1018.2 |
| 20260504035557 | 41 | 160 | 0.0 | 1.0 | 0.00 | 0.00 | 0.00 | 64 | 1018.4 |
| 20260504035057 | 43 | 112 | 1.0 | 1.0 | 0.00 | 0.00 | 0.00 | 61 | 1018.3 |
| 20260504034557 | 44 | 234 | 0.0 | 1.0 | 0.00 | 0.00 | 0.00 | 59 | 1018.2 |
| 20260504034056 | 45 | 234 | 0.0 | 1.0 | 0.00 | 0.00 | 0.00 | 57 | 1018.3 |
| 20260504033557 | 45 | 234 | 0.0 | 3.0 | 0.00 | 0.00 | 0.00 | 56 | 1018.2 |
| 20260504033101 | 45 | 218 | 0.0 | 4.0 | 0.00 | 0.00 | 0.00 | 55 | 1018.2 |
| 20260504032556 | 46 | 233 | 1.0 | 4.0 | 0.00 | 0.00 | 0.00 | 55 | 1018.2 |
| 20260504032056 | 45 | 212 | 1.0 | 2.0 | 0.00 | 0.00 | 0.00 | 55 | 1018.1 |
| 20260504031557 | 45 | 174 | 0.0 | 3.0 | 0.00 | 0.00 | 0.00 | 55 | 1018.1 |
| 20260504031056 | 46 | 217 | 0.0 | 3.0 | 0.00 | 0.00 | 0.00 | 54 | 1018.1 |
| 20260504030558 | 46 | 221 | 1.0 | 3.0 | 0.00 | 0.00 | 0.00 | 53 | 1018.2 |
| 20260504030055 | 46 | 230 | 0.0 | 4.0 | 0.00 | 0.00 | 0.00 | 52 | 1018.1 |
| 20260504025555 | 46 | 226 | 1.0 | 4.0 | 0.00 | 0.00 | 0.00 | 52 | 1018.2 |
| 20260504025055 | 46 | 188 | 1.0 | 3.0 | 0.00 | 0.00 | 0.00 | 51 | 1018.3 |